Location: Newark
(47.5833°N, 8.1500°E)
Time: 14:22:05
(UTC+00:00)

Tiros 1 - Pass Details

Date: 31 October 2020
Orbit: 630 x 664 km, 48.4° (Epoch: 29 November)

Event Time Altitude Azimuth Distance (km) Brightness Sun altitude
Exits shadow 05:26:52 10° 280° (W) 2,026 9.0 -7.9°
Reaches altitude 10° 05:26:55 10° 280° (W) 2,010 9.0 -7.9°
Maximum altitude 05:31:33 88° 9° (N) 635 7.1 -7.1°
Drops below altitude 10° 05:36:10 10° 100° (E) 2,009 11.5 -6.3°
Sets 05:38:30 0° 101° (E) 2,918 13.3 -6.0°
